Location: Unspecified
(0.0000°N, 0.0000°E)
Time: 11:38:33
(UTC+00:00)

N. Korean satellite - Visible Passes

Search period start: 20 May 2018 00:00
Search period end: 30 May 2018 00:00
Orbit: 457 x 514 km, 97.2° (Epoch: 19 May)

Date Brightness Start Highest point End Pass type
(mag) Time Alt. Az. Time Alt. Az. Time Alt. Az.
22 May 9.5 18:56:25 10° SW 18:58:31 15° WSW 19:00:35 10° WNW visible
23 May 8.1 18:31:18 10° S 18:34:35 37° WSW 18:37:48 10° NNW visible
26 May 9.5 05:31:49 10° NE 05:34:28 19° ESE 05:37:10 10° SSE visible
26 May 9.4 18:53:39 10° SW 18:55:53 16° WSW 18:58:07 10° WNW visible
27 May 7.9 18:28:38 10° S 18:31:56 40° W 18:35:11 10° NNW visible
